Wind_Speed
14 12 10 9 8 8 8 8 7 7 6 6 5 5 5 6 7 5 4 4 5 6 6 6 6 7 8 7 7 7 8 9 9 7 6 7 7 6 7 7 7 8
15 12 11 10 9 9 10 7 7 8 7 6 5 5 5 4 3 2 3 5 6 7 7 7 8 9 9 8 8 7 8 9 9 8 8 8 7 7 8 7 8 8
15 14 14 12 9 9 9 8 8 8 7 6 6 5 4 3 3 4 6 7 7 8 8 8 9 11 11 9 9 8 8 9 9 9 10 9 7 8 8 7 7 8
17 16 15 12 9 9 10 10 10 9 8 8 8 7 4 4 5 5 7 8 8 8 8 9 10 11 10 9 8 8 9 10 10 10 10 9 8 8 8 8 8 8
19 17 15 12 10 10 12 12 10 10 10 10 10 8 6 6 6 7 9 9 8 9 9 9 10 10 10 9 9 10 10 11 11 10 10 10 9 9 9 9 8 8
20 19 16 14 12 12 13 12 11 12 13 12 12 10 9 9 9 10 10 9 9 9 9 9 10 11 11 11 11 12 12 11 11 10 10 11 10 10 10 9 9 9
21 20 17 15 15 14 14 13 13 14 15 15 13 11 11 11 12 11 10 10 10 10 10 10 11 12 12 12 13 14 13 12 12 11 11 12 11 11 10 10 10 9
22 20 18 16 15 16 15 15 15 16 16 16 15 13 13 13 14 13 11 11 12 12 12 12 12 13 12 12 13 15 14 14 13 12 12 13 12 11 11 10 10 10
22 20 18 16 16 17 16 16 16 17 16 16 17 16 16 16 16 14 13 13 14 14 15 14 14 14 13 13 14 14 14 14 14 14 14 15 14 13 12 11 11 11
22 21 18 16 17 17 17 17 17 19 19 18 18 18 18 16 14 12 12 13 14 15 17 17 15 13 14 15 15 14 14 14 15 15 16 15 14 13 13 12 12 13
23 21 19 17 18 19 19 19 18 18 16 12 12 15 15 13 10 9 10 11 12 14 15 15 14 11 12 13 15 14 14 15 15 15 15 14 13 14 14 14 14 15
24 23 20 19 20 20 20 21 20 17 12 6 7 10 10 9 9 10 10 10 11 10 9 10 11 11 12 13 14 15 14 15 15 16 15 14 14 14 14 15 15 16
25 22 21 20 21 21 20 19 18 15 12 8 7 8 8 9 9 9 9 10 10 9 10 12 13 13 13 14 15 15 14 14 15 16 16 15 15 15 15 15 16 18
25 21 21 22 22 22 20 19 17 15 14 12 10 10 10 9 8 8 10 12 12 13 15 14 13 12 12 12 13 13 14 15 15 15 15 15 15 15 15 16 17 18
24 22 23 23 23 22 20 19 18 16 15 15 15 14 13 11 9 10 12 14 15 16 14 12 12 13 13 12 13 13 14 14 15 15 14 14 14 14 15 16 17 18
25 25 26 25 25 23 21 20 18 17 15 15 15 14 13 12 12 13 13 15 16 16 13 13 14 15 14 14 13 13 13 13 15 16 16 16 16 15 16 16 17 18
27 27 26 28 27 24 22 21 18 17 15 14 14 14 14 15 15 15 15 15 16 16 15 15 15 15 15 16 15 14 14 14 14 16 16 17 17 17 17 17 17 18
25 25 24 26 26 23 22 20 18 16 15 15 15 16 17 17 17 16 16 16 15 15 14 14 15 16 17 18 17 15 14 14 14 15 16 17 19 18 18 18 17 18
23 24 24 23 24 23 21 19 17 17 17 17 17 18 18 18 18 17 16 17 16 15 15 15 16 17 17 16 17 16 14 13 13 15 16 18 20 21 20 19 18 18
26 26 25 25 25 23 21 19 19 18 18 18 19 19 19 18 18 16 16 16 17 16 16 16 16 16 15 14 14 15 14 13 13 14 16 19 21 22 22 22 20 18
29 28 27 27 26 24 22 21 20 19 20 20 20 19 19 17 16 15 15 15 16 16 16 16 14 14 15 14 13 13 13 13 13 14 16 18 21 21 22 22 20 19
29 28 28 28 26 24 23 22 21 21 21 21 21 19 18 17 16 16 16 16 17 17 16 13 10 11 12 12 13 16 16 14 12 13 15 18 19 19 19 20 20 20
28 28 28 27 25 25 23 23 22 22 21 21 21 19 18 17 16 16 17 18 18 16 12 9 10 12 13 13 14 15 14 12 10 13 16 18 18 17 18 19 20 21
29 29 29 28 27 27 26 25 24 22 20 19 19 18 15 13 13 16 17 15 11 9 8 9 12 15 17 18 15 10 8 9 12 15 16 15 15 15 16 18 19 19
30 30 29 30 30 29 28 27 25 22 19 18 16 14 10 9 10 12 12 9 7 8 9 11 14 15 17 16 12 7 7 11 12 13 12 12 12 14 15 16 18 18
31 31 31 32 31 31 29 28 25 21 17 15 12 9 6 7 8 8 6 6 8 11 13 14 15 15 14 11 8 6 8 9 8 7 8 10 11 13 15 17 18 16
Wind_Direction
193 198 199 198 198 203 202 201 208 212 214 227 241 242 247 272 287 292 294 292 295 300 300 297 293 294 298 302 305 311 317 320 324 328 311 305 315 320 324 331 331 330
194 198 199 200 201 208 217 220 213 213 222 235 241 240 244 264 284 277 274 288 298 301 300 297 293 294 296 292 291 299 308 311 315 313 299 293 294 301 312 323 328 327
194 197 197 198 204 215 223 214 202 215 233 233 233 235 235 251 269 270 277 292 302 303 301 300 298 299 297 290 286 291 299 306 308 305 300 292 285 294 310 316 315 318
190 194 197 201 212 218 216 207 207 226 239 232 229 229 236 262 266 267 278 286 290 295 298 299 301 303 300 294 291 292 296 301 302 299 297 295 291 293 304 307 302 304
190 191 196 201 207 210 210 209 216 234 239 234 233 235 246 251 246 260 277 281 283 290 293 295 300 304 305 302 295 292 293 295 296 292 289 289 288 289 291 289 288 293
191 191 193 197 202 209 212 213 220 230 233 233 236 240 243 243 252 271 280 281 285 292 295 295 293 292 295 297 293 291 293 292 289 287 286 281 277 279 279 275 280 287
191 191 192 195 200 207 212 216 224 230 232 236 240 241 239 244 259 272 277 276 279 285 289 289 288 285 285 286 286 289 290 286 283 282 283 279 275 278 273 270 281 284
188 188 188 191 200 208 214 220 228 234 236 239 242 244 244 249 259 265 270 270 272 279 281 280 284 285 281 274 275 284 286 282 280 278 277 277 277 279 276 272 277 277
189 191 190 195 205 211 216 221 229 238 241 243 244 244 245 250 255 257 260 263 266 274 277 277 282 282 278 269 268 279 286 283 280 275 275 279 278 277 277 274 271 269
191 195 193 197 206 212 217 222 232 243 246 247 246 243 244 249 253 253 259 265 269 276 279 276 275 276 276 270 266 276 287 286 283 277 275 279 279 276 275 274 273 269
193 195 192 197 207 213 218 223 231 239 244 244 233 231 237 242 247 255 265 272 277 285 287 278 271 275 283 277 270 275 284 287 286 283 279 277 277 276 274 273 274 272
195 194 193 199 208 214 220 226 230 233 240 239 203 203 221 235 250 261 268 277 283 290 297 290 287 290 292 288 280 277 283 287 289 288 285 279 277 278 278 276 275 276
196 196 198 204 211 216 220 225 229 232 240 245 224 218 239 258 266 268 276 286 286 289 297 298 298 295 290 288 283 279 281 285 289 291 287 282 282 285 285 282 281 282
196 198 202 208 214 217 219 223 228 231 235 241 247 256 269 278 278 277 285 288 286 289 293 292 292 291 286 285 284 281 280 283 287 289 287 285 287 291 292 289 288 289
197 200 205 209 213 216 219 222 224 225 232 244 255 264 273 281 283 283 283 281 282 286 284 282 291 295 287 283 284 281 278 280 284 284 281 283 286 292 297 297 296 297
199 202 206 209 211 213 217 219 221 225 234 245 253 260 267 270 274 279 278 277 280 280 275 280 291 291 282 280 282 280 274 271 274 276 274 275 280 285 290 295 299 300
198 202 206 209 211 211 214 218 221 227 232 240 247 254 259 260 265 271 273 275 276 275 276 280 284 284 283 284 284 282 275 268 269 272 271 272 275 277 281 288 292 297
194 198 202 205 206 208 213 216 219 222 228 235 244 251 255 256 259 264 268 271 270 271 277 280 282 286 288 289 290 288 283 277 274 273 272 273 273 274 279 282 285 293
200 200 202 204 207 210 212 215 219 224 231 239 245 250 253 254 256 260 265 268 265 265 274 280 283 287 290 294 296 293 288 284 282 280 278 279 279 280 281 279 280 290
208 206 208 211 213 214 215 217 221 228 235 241 245 247 251 254 256 259 266 268 265 265 273 279 284 289 292 295 295 288 283 283 286 286 284 284 284 284 281 277 279 287
208 208 210 213 215 215 214 216 222 230 236 240 244 247 251 254 255 260 269 273 272 272 272 275 284 292 292 292 294 289 280 280 285 287 289 290 289 288 283 277 279 284
206 207 209 212 213 211 213 218 221 228 234 239 243 245 249 253 256 262 269 272 275 276 273 273 288 300 298 299 306 301 284 274 278 286 293 296 295 293 286 279 279 281
206 208 210 212 212 210 214 219 220 225 232 237 241 243 248 257 265 269 268 269 274 275 272 277 288 293 293 295 302 300 282 270 282 295 298 298 296 292 285 281 280 279
208 211 213 214 215 214 216 218 219 222 227 231 237 243 251 265 276 274 268 269 275 274 273 285 292 295 298 296 293 289 281 289 302 302 300 301 301 296 289 285 282 283
210 213 216 217 217 216 216 217 217 217 224 232 238 243 254 277 285 276 268 271 284 286 290 300 306 311 311 304 292 285 297 307 306 301 304 311 309 301 296 292 289 293
212 213 216 218 217 215 216 217 216 216 220 225 227 232 254 282 287 285 287 298 300 299 304 310 318 323 321 307 296 302 311 315 313 309 312 312 305 300 300 299 300 304
Height
816 817 818 819 819 820 821 821 821 822 823 823 824 825 825 826 826 826 826 826 826 826 825 825 825 825 825 824 824 824 823 823 823 823 822 822 822 821 821 821 820 820
815 816 817 818 819 820 820 821 821 821 822 823 823 823 824 824 825 825 825 825 825 825 824 824 824 824 823 823 823 823 823 822 822 822 821 821 821 821 820 820 820 819
813 814 815 816 817 818 819 820 821 821 822 822 822 822 823 823 824 824 824 824 824 824 823 823 823 822 822 822 822 822 821 821 821 820 820 820 819 819 819 819 818 818
810 812 813 815 816 817 818 819 820 820 821 821 821 821 822 822 823 823 823 823 822 822 822 822 822 821 821 820 820 820 820 819 819 819 818 818 818 818 817 817 817 816
808 809 811 813 814 815 816 817 819 819 819 819 819 820 820 821 821 821 821 821 821 821 821 821 821 820 820 819 819 819 818 818 817 817 817 816 816 816 816 816 815 815
806 807 808 811 812 814 815 816 817 818 818 818 818 819 819 819 819 820 820 820 819 820 819 819 819 819 819 818 818 817 816 816 816 815 815 814 814 814 814 814 814 813
804 805 806 808 810 812 813 814 816 816 816 817 817 817 817 817 818 818 818 818 818 818 818 817 817 817 817 817 816 815 815 814 814 814 813 813 813 812 812 812 811 811
803 804 804 806 808 810 811 813 814 814 814 815 816 816 816 816 816 816 817 816 816 816 816 815 815 815 815 814 814 813 813 812 812 811 811 811 811 811 810 810 809 809
801 803 803 805 807 809 810 811 812 812 813 814 814 814 815 815 815 815 815 815 814 814 814 813 813 812 812 812 812 812 811 810 810 809 809 809 809 808 808 808 807 807
799 800 801 802 805 807 808 809 810 810 811 811 811 812 813 813 814 814 814 813 813 812 812 811 811 810 810 810 810 810 809 808 808 807 807 806 806 806 806 806 805 804
797 798 798 799 803 805 806 808 808 808 809 809 809 810 811 812 812 812 812 811 811 811 810 809 809 809 808 808 808 807 807 806 806 805 805 804 804 804 804 803 803 802
794 795 795 797 800 803 805 806 806 807 808 807 807 808 810 810 810 810 810 810 810 809 808 808 808 807 807 806 805 805 805 804 804 803 803 802 802 802 801 801 801 800
791 792 793 795 799 801 803 804 804 806 806 805 806 807 808 808 809 809 808 808 808 807 807 806 806 805 805 804 803 803 803 802 802 801 801 800 800 800 800 799 798 798
788 790 792 795 798 799 801 802 802 804 804 804 804 805 806 807 807 807 807 807 806 806 805 805 804 803 802 802 801 801 801 800 800 799 799 798 798 797 797 797 796 795
786 788 791 794 796 798 799 800 800 801 802 802 802 803 804 805 805 805 805 805 804 804 803 803 802 801 800 799 799 799 798 798 797 797 796 796 796 795 794 794 793 792
782 785 789 792 794 796 797 798 798 799 799 800 801 801 803 803 803 803 803 803 802 802 802 801 800 799 798 797 797 796 796 796 795 795 794 794 793 793 792 791 790 790
779 783 787 790 792 794 795 795 796 796 797 798 799 799 800 801 801 801 800 800 800 800 800 799 798 798 797 796 795 794 794 793 793 792 792 792 791 791 790 789 788 787
780 783 786 788 790 792 792 793 794 794 795 796 797 797 798 798 798 798 798 798 798 798 797 797 796 796 795 794 793 793 792 791 791 791 790 790 789 788 788 787 786 785
780 783 785 787 788 789 790 791 791 792 793 794 794 795 795 795 795 795 795 795 795 795 795 794 794 794 793 792 792 791 791 790 789 789 788 787 787 786 786 785 784 783
781 782 784 786 787 788 788 788 789 789 790 791 792 793 793 793 793 792 792 793 792 792 792 791 791 791 790 790 789 788 788 787 787 786 786 785 785 784 783 783 782 781
780 781 783 784 785 786 786 786 786 787 788 789 790 790 790 790 790 790 790 790 790 790 789 788 788 788 787 787 786 786 786 785 784 784 783 782 782 781 781 780 780 779
778 780 781 782 783 783 783 783 784 784 786 787 787 788 788 788 788 788 787 788 788 787 786 786 786 785 785 784 784 784 783 782 782 781 781 780 779 778 778 778 777 776
776 778 779 780 780 780 780 780 781 782 784 784 785 785 785 785 785 785 785 785 785 785 784 784 783 782 781 781 781 781 781 780 780 779 778 777 776 776 776 775 775 774
773 775 776 777 777 777 777 777 778 780 781 781 782 782 783 783 783 783 784 783 783 783 782 781 780 779 779 779 777 777 778 778 779 778 776 775 774 774 773 773 772 772
770 772 773 773 773 773 773 774 775 777 778 778 779 780 781 781 781 781 782 782 781 780 779 779 778 777 777 777 776 776 776 776 776 776 774 773 772 772 772 771 770 770
766 768 768 768 769 770 771 772 773 774 776 776 777 778 779 780 780 780 780 779 779 778 777 777 776 775 775 775 774 775 775 774 774 774 773 772 771 770 770 768 768 767